Avoca, PA
on Saturday, October 25, 2014

Saturday
Previous Day Next Day
Daily Summary
 ActualAverageRecord
Temperature
Mean Temperature °F 48°F  
Max Temperature 66°F 58°F 77°F (1963)
Min Temperature 37°F 38°F 27°F (1962)
Degree Days
Heating Degree Days 14 17  
Month to date heating degree days 230 332  
Since 1 July heating degree days 343 494  
Cooling Degree Days 0 0  
Month to date cooling degree days 11 0  
Year to date cooling degree days 686 576  
Growing Degree Days2 (Base °F )  
Moisture
Dew Point 38°F   
Average Humidity 61    
Maximum Humidity 82    
Minimum Humidity 42    
Precipitation
Precipitation 0.00 in 0.11 in 1.38 in (1980)
Month to date precipitation 4.07 2.76  
Year to date precipitation 26.32 31.86  
Wind
Wind Speed 3 mph   
Max Wind Speed 16 mph   
Max Gust Speed 23 mph   
Visibility 10.0 miles   
Events     

Key: T is trace of precipitation, MM is missing value
Source: Averaged Metar Reports
Time(EDT)TemperatureDew PointHumidity Pressure Visibility Wind DirectionWind SpeedGust SpeedPrecipitationEvents Conditions
12:54 AM 44.1°F 34.0°F 68% 29.91 in 10.0 miles Calm Calm - N/A   Clear
1:54 AM 45.0°F 33.1°F 63% 29.91 in 10.0 miles Calm Calm - N/A   Clear
2:54 AM 42.1°F 30.9°F 65% 29.91 in 10.0 miles Calm Calm - N/A   Clear
3:54 AM 39.9°F 30.0°F 68% 29.91 in 10.0 miles Calm Calm - N/A   Clear
4:54 AM 39.0°F 32.0°F 76% 29.91 in 10.0 miles Variable 3.5 mph - N/A   Clear
5:54 AM 39.0°F 33.1°F 79% 29.90 in 10.0 miles Calm Calm - N/A   Clear
6:54 AM 39.0°F 32.0°F 76% 29.90 in 10.0 miles Calm Calm - N/A   Mostly Cloudy
7:54 AM 39.0°F 34.0°F 82% 29.89 in 10.0 miles Calm Calm - N/A   Partly Cloudy
8:54 AM 45.0°F 35.1°F 68% 29.88 in 10.0 miles Calm Calm - N/A   Clear
9:54 AM 48.9°F 37.0°F 64% 29.88 in 10.0 miles WSW 5.8 mph - N/A   Overcast
10:54 AM 54.0°F 39.9°F 59% 29.85 in 10.0 miles Variable 3.5 mph - N/A   Overcast
11:54 AM 57.0°F 41.0°F 55% 29.82 in 10.0 miles West 4.6 mph - N/A   Overcast
12:54 PM 61.0°F 42.1°F 50% 29.77 in 10.0 miles SW 5.8 mph - N/A   Scattered Clouds
1:54 PM 63.0°F 42.1°F 46% 29.74 in 10.0 miles SW 11.5 mph 17.3 mph N/A   Partly Cloudy
2:54 PM 64.0°F 42.1°F 45% 29.70 in 10.0 miles SW 11.5 mph 23.0 mph N/A   Clear
3:54 PM 66.0°F 42.1°F 42% 29.67 in 10.0 miles WSW 13.8 mph 20.7 mph N/A   Clear
4:54 PM 64.9°F 42.1°F 43% 29.65 in 10.0 miles SW 8.1 mph - N/A   Mostly Cloudy
5:54 PM 64.9°F 43.0°F 45% 29.63 in 10.0 miles SW 9.2 mph - N/A   Overcast
6:54 PM 64.9°F 43.0°F 45% 29.62 in 10.0 miles SW 12.7 mph 20.7 mph N/A   Partly Cloudy
7:54 PM 63.0°F 44.1°F 50% 29.61 in 10.0 miles SW 12.7 mph - N/A   Clear
8:54 PM 63.0°F 46.0°F 54% 29.60 in 10.0 miles WSW 9.2 mph - N/A   Overcast
Astronomy
Sunrise:07:26 AM (EDT) Moon Rise:09:03 AM (EDT)10/25
Sunset:06:07 PM (EDT) Moon Set:07:27 PM (EDT)10/25
Moon Phase
Oct. 25 Oct. 30 Nov. 06 Nov. 14 Nov. 22

Copyright © 2014 The Weather Underground, Inc.